Weather History for Kimball, NE

Change the Weather History Date:

Wednesday, March 21, 2012

  Actual Average (KSNY) Record (KSNY)
Temperature  
Mean Temperature 40 °F 40 °F  
Max Temperature 59 °F 54 °F 71 °F (1975)
Min Temperature 22 °F 26 °F 0 °F (1983)
Degree Days  
Heating Degree Days 24 25  
Month to date heating degree days 569  
Since 1 July heating degree days 5151  
Cooling Degree Days 0 0  
Month to date cooling degree days 0  
Year to date cooling degree days 0  
Moisture  
Dew Point 15 °F    
Average Humidity 38    
Maximum Humidity 64    
Minimum Humidity 16    
Precipitation  
Precipitation 0.00 in 0.04 in 0.49 in (1973)
Month to date precipitation 0.64  
Year to date precipitation 1.16  
Sea Level Pressure  
Sea Level Pressure 29.96 in    
Wind  
Wind Speed 10 mph (NW)    
Max Wind Speed 15 mph    
Max Gust Speed 21 mph    
Visibility 10 miles    
Events      
T = Trace of Precipitation, MM = Missing Value Source: NWS Daily Summary

Daily Weather History Graph

Daily Weather History Graph

Search for Another Location

Airport:

Trip Planner

Search our weather history database for the weather conditions in past years. The results will help you decide how hot, cold, wet, or windy it might be!

Date:

Astronomy

Mar. 21, 2012 Rise Set
Actual Time 7:55 AM CDT 8:08 PM CDT
Civil Twilight 7:27 AM CDT 8:36 PM CDT
Nautical Twilight 6:55 AM CDT 9:08 PM CDT
Astronomical Twilight 6:22 AM CDT 9:41 PM CDT
Moon 7:07 AM CDT (3/21) 7:37 PM CDT (3/21)
Length of Visible Light 13h 08m
Length of Day
12h 13m
Waning Crescent, 1% of the Moon is Illuminated
Mar 21
Waning Crescent
Mar 22
New
Mar 30
First Quarter
Apr 6
Full
Apr 13
Last Quarter

Hourly Weather History & Observations

Time (CDT) Temp. Windchill Dew Point Humidity Pressure Visibility Wind Dir Wind Speed Gust Speed Precip Events Conditions
12:15 AM 29.3 °F 21.5 °F 11.1 °F 47% 29.97 in 10.0 mi WSW 8.1 mph - N/A   Clear
12:35 AM 29.5 °F 21.8 °F 11.3 °F 47% 29.97 in 10.0 mi SW 8.1 mph - N/A   Clear
12:55 AM 28.8 °F 20.9 °F 11.3 °F 48% 29.97 in 10.0 mi WSW 8.1 mph - N/A   Clear
1:15 AM 28.6 °F 20.7 °F 11.3 °F 48% 29.97 in 10.0 mi WSW 8.1 mph - N/A   Clear
1:35 AM 27.9 °F 19.1 °F 11.5 °F 50% 29.97 in 10.0 mi WSW 9.2 mph - N/A   Clear
1:55 AM 26.4 °F 17.3 °F 10.9 °F 52% 29.96 in 10.0 mi WSW 9.2 mph - N/A   Clear
2:55 AM 23.4 °F 14.3 °F 10.8 °F 59% 29.95 in 10.0 mi West 8.1 mph - N/A   Clear
3:15 AM 23.9 °F 15.8 °F 11.7 °F 60% 29.95 in 10.0 mi West 6.9 mph - N/A   Clear
3:35 AM 23.7 °F 14.7 °F 11.3 °F 59% 29.94 in 10.0 mi West 8.1 mph - N/A   Clear
3:55 AM 22.5 °F 12.4 °F 11.3 °F 62% 29.94 in 10.0 mi WSW 9.2 mph - N/A   Clear
4:15 AM 22.1 °F 11.3 °F 11.5 °F 64% 29.93 in 10.0 mi WSW 10.4 mph - N/A   Clear
4:35 AM 23.7 °F 12.6 °F 12.2 °F 61% 29.92 in 10.0 mi West 11.5 mph - N/A   Clear
4:55 AM 25.5 °F 17.8 °F 11.8 °F 56% 29.92 in 10.0 mi West 6.9 mph - N/A   Clear
5:15 AM 24.1 °F 16.0 °F 11.3 °F 58% 29.92 in 10.0 mi West 6.9 mph - N/A   Clear
5:35 AM 25.0 °F 15.5 °F 11.8 °F 57% 29.92 in 10.0 mi West 9.2 mph - N/A   Clear
5:55 AM 27.5 °F 18.0 °F 11.8 °F 52% 29.92 in 10.0 mi West 10.4 mph - N/A   Clear
6:15 AM 27.9 °F 18.4 °F 12.0 °F 52% 29.92 in 10.0 mi West 10.4 mph - N/A   Clear
6:35 AM 27.9 °F 17.3 °F 11.8 °F 51% 29.93 in 10.0 mi West 12.7 mph - N/A   Clear
6:55 AM 27.0 °F 16.7 °F 11.7 °F 53% 29.94 in 10.0 mi West 11.5 mph - N/A   Clear
7:15 AM 24.8 °F 15.3 °F 11.3 °F 57% 29.94 in 10.0 mi West 9.2 mph - N/A   Clear
7:35 AM 22.8 °F 14.5 °F 11.5 °F 62% 29.94 in 10.0 mi West 6.9 mph - N/A   Clear
7:55 AM 29.1 °F 19.4 °F 14.5 °F 55% 29.95 in 10.0 mi WNW 11.5 mph - N/A   Clear
8:15 AM 29.8 °F 18.9 °F 15.3 °F 55% 29.95 in 10.0 mi WNW 15.0 mph - N/A   Clear
8:35 AM 31.3 °F 21.1 °F 16.3 °F 54% 29.97 in 10.0 mi WNW 13.8 mph - N/A   Clear
8:55 AM 32.7 °F 23.4 °F 17.6 °F 54% 29.97 in 10.0 mi NW 12.7 mph - N/A   Clear
9:15 AM 36.3 °F 28.0 °F 18.5 °F 48% 29.98 in 10.0 mi NW 12.7 mph - N/A   Clear
9:35 AM 40.3 °F 32.2 °F 19.4 °F 43% 29.98 in 10.0 mi NW 15.0 mph - N/A   Clear
9:55 AM 43.7 °F 37.3 °F 19.4 °F 38% 29.98 in 10.0 mi NW 12.7 mph 18.4 mph N/A   Clear
10:15 AM 46.2 °F 40.8 °F 18.5 °F 33% 29.99 in 10.0 mi NNW 11.5 mph - N/A   Clear
10:35 AM 47.8 °F - 17.6 °F 30% 30.00 in 10.0 mi NNW 13.8 mph - N/A   Clear
10:55 AM 49.3 °F - 16.5 °F 27% 30.00 in 10.0 mi NNW 15.0 mph - N/A   Clear
11:15 AM 50.7 °F - 14.7 °F 24% 30.01 in 10.0 mi North 11.5 mph 19.6 mph N/A   Clear
11:35 AM 52.0 °F - 14.5 °F 23% 30.00 in 10.0 mi North 15.0 mph - N/A   Clear
11:55 AM 52.5 °F - 14.0 °F 22% 30.01 in 10.0 mi North 11.5 mph 17.3 mph N/A   Clear
12:15 PM 52.7 °F - 16.2 °F 24% 30.00 in 10.0 mi North 12.7 mph 16.1 mph N/A   Clear
12:35 PM 54.3 °F - 17.1 °F 23% 30.00 in 10.0 mi North 12.7 mph - N/A   Clear
12:55 PM 54.5 °F - 16.9 °F 23% 29.99 in 10.0 mi North 13.8 mph 18.4 mph N/A   Clear
1:15 PM 55.4 °F - 18.3 °F 23% 29.98 in 10.0 mi North 13.8 mph - N/A   Clear
1:35 PM 56.1 °F - 18.5 °F 23% 29.98 in 10.0 mi NNE 11.5 mph 17.3 mph N/A   Clear
1:55 PM 57.7 °F - 18.9 °F 22% 29.98 in 10.0 mi NNE 11.5 mph 18.4 mph N/A   Clear
2:15 PM 57.4 °F - 18.7 °F 22% 29.97 in 10.0 mi North 12.7 mph - N/A   Clear
2:35 PM 57.2 °F - 18.5 °F 22% 29.96 in 10.0 mi North 8.1 mph 20.7 mph N/A   Clear
2:55 PM 58.1 °F - 19.2 °F 22% 29.96 in 10.0 mi NNW 10.4 mph 16.1 mph N/A   Clear
3:15 PM 57.6 °F - 18.5 °F 22% 29.95 in 10.0 mi North 9.2 mph - N/A   Clear
3:35 PM 58.6 °F - 17.8 °F 20% 29.96 in 10.0 mi North 9.2 mph - N/A   Clear
3:55 PM 59.0 °F - 17.1 °F 20% 29.96 in 10.0 mi North 5.8 mph 17.3 mph N/A   Clear
4:15 PM 58.6 °F - 16.3 °F 19% 29.95 in 10.0 mi North 5.8 mph 16.1 mph N/A   Clear
4:35 PM 59.0 °F - 14.7 °F 18% 29.95 in 10.0 mi NE 6.9 mph - N/A   Clear
4:55 PM 59.9 °F - 17.2 °F 19% 29.95 in 10.0 mi NNE 6.9 mph - N/A   Clear
5:15 PM 58.6 °F - 14.9 °F 18% 29.94 in 10.0 mi North 4.6 mph 16.1 mph N/A   Clear
5:35 PM 59.5 °F - 12.9 °F 16% 29.94 in 10.0 mi NNE 10.4 mph 16.1 mph N/A   Clear
5:55 PM 59.2 °F - 15.1 °F 18% 29.94 in 10.0 mi NNE 11.5 mph - N/A   Clear
6:15 PM 59.0 °F - 13.6 °F 17% 29.94 in 10.0 mi North 10.4 mph - N/A   Clear
6:35 PM 58.1 °F - 13.8 °F 18% 29.94 in 10.0 mi NNE 8.1 mph - N/A   Clear
6:55 PM 57.6 °F - 13.1 °F 17% 29.95 in 10.0 mi NNE 9.2 mph - N/A   Clear
7:15 PM 56.8 °F - 12.9 °F 18% 29.95 in 10.0 mi NNE 9.2 mph - N/A   Clear
7:35 PM 55.6 °F - 13.5 °F 19% 29.95 in 10.0 mi NE 6.9 mph - N/A   Clear
7:55 PM 52.7 °F - 14.0 °F 22% 29.96 in 10.0 mi NNE 5.8 mph - N/A   Clear
8:15 PM 48.6 °F - 14.0 °F 25% 29.96 in 10.0 mi NE 4.6 mph - N/A   Clear
8:35 PM 46.0 °F 44.8 °F 13.8 °F 27% 29.97 in 10.0 mi NE 3.5 mph - N/A   Clear
8:55 PM 43.7 °F 40.3 °F 13.1 °F 29% 29.98 in 10.0 mi ENE 5.8 mph - N/A   Clear
9:15 PM 40.5 °F 36.5 °F 14.0 °F 34% 29.98 in 10.0 mi ENE 5.8 mph - N/A   Clear
9:35 PM 42.3 °F 38.6 °F 12.6 °F 30% 29.98 in 10.0 mi ENE 5.8 mph - N/A   Clear
9:55 PM 41.9 °F 39.0 °F 10.4 °F 28% 29.99 in 10.0 mi NE 4.6 mph - N/A   Clear
10:15 PM 40.1 °F 36.9 °F 9.0 °F 28% 30.00 in 10.0 mi NE 4.6 mph - N/A   Clear
10:35 PM 39.4 °F 37.2 °F 9.3 °F 29% 30.00 in 10.0 mi NE 3.5 mph - N/A   Clear
10:55 PM 38.5 °F 34.1 °F 9.3 °F 30% 30.00 in 10.0 mi NNE 5.8 mph - N/A   Clear
11:15 PM 38.3 °F 34.8 °F 10.4 °F 32% 30.00 in 10.0 mi NNE 4.6 mph - N/A   Clear
11:35 PM 37.4 °F 32.8 °F 9.5 °F 32% 30.00 in 10.0 mi North 5.8 mph - N/A   Clear
11:55 PM 35.6 °F 30.7 °F 9.7 °F 34% 29.99 in 10.0 mi North 5.8 mph - N/A   Clear